N8IR-19 Weather Reports


Display with metric or nautical units.
time (UTC)temp
F
wind
direction
speed
MPH
gust
MPH
rain 1hr
in
rain 24hr
in
rain mn
in
humidity
%
barometer
mb
20260502202421 47 293 3.0 5.0 0.00 0.34 0.33 45 997.2
20260502201940 46 270 5.0 7.0 0.00 0.34 0.33 44 997.2
20260502201419 47 270 8.0 10.0 0.00 0.34 0.33 44 997.2
20260502200939 47 315 4.0 8.0 0.00 0.34 0.33 45 997.3
20260502200420 47 293 3.0 4.0 0.00 0.34 0.33 43 997.4
20260502195919 47 270 2.0 3.0 0.00 0.34 0.33 44 997.4
20260502195419 47 23 4.0 8.0 0.00 0.34 0.33 45 997.6
20260502194917 47 293 4.0 7.0 0.00 0.34 0.33 43 997.6
20260502194417 48 338 4.0 6.0 0.00 0.34 0.33 43 997.7
20260502193917 48 293 3.0 4.0 0.00 0.34 0.33 42 997.7
20260502193440 48 0 5.0 10.0 0.00 0.34 0.33 42 997.6
20260502192918 47 270 3.0 6.0 0.00 0.34 0.33 44 997.8
20260502192417 47 270 6.0 8.0 0.00 0.34 0.33 44 997.8
20260502191937 46 293 7.0 9.0 0.00 0.34 0.33 44 997.8
20260502191418 46 315 3.0 5.0 0.00 0.34 0.33 44 997.8
20260502190917 46 293 6.0 7.0 0.00 0.34 0.33 43 997.9
20260502190417 46 270 8.0 11.0 0.00 0.34 0.33 45 997.9
20260502185917 46 315 3.0 4.0 0.00 0.34 0.33 44 998.0
20260502185416 46 248 4.0 8.0 0.00 0.34 0.33 47 998.0
20260502184917 46 23 1.0 4.0 0.00 0.34 0.33 48 998.1
20260502184417 45 0.0 1.0 0.00 0.34 0.33 48 998.0
20260502183918 46 0 8.0 10.0 0.00 0.34 0.33 49 998.0
20260502183417 46 23 3.0 5.0 0.00 0.34 0.33 47 998.0
20260502182917 46 0 5.0 8.0 0.00 0.34 0.33 48 998.0
20260502182417 46 23 3.0 4.0 0.00 0.34 0.33 48 998.0
20260502181917 45 45 4.0 6.0 0.00 0.34 0.33 50 998.1
20260502181418 45 23 5.0 7.0 0.00 0.34 0.33 49 998.1
20260502180918 45 68 3.0 5.0 0.00 0.34 0.33 48 998.1
20260502180420 45 45 6.0 7.0 0.00 0.34 0.33 49 998.2
20260502170416 44 0 2.0 3.0 0.00 0.34 0.33 48 998.6
20260502163916 43 68 3.0 5.0 0.00 0.34 0.33 50 998.8
20260502163416 42 68 3.0 5.0 0.00 0.34 0.33 49 998.7
20260502162916 42 45 5.0 9.0 0.00 0.34 0.33 50 998.8
20260502162417 42 23 4.0 5.0 0.00 0.35 0.33 50 998.8
20260502161917 42 23 4.0 6.0 0.00 0.35 0.33 51 998.8
20260502161417 42 45 6.0 8.0 0.00 0.35 0.33 50 998.7
20260502160917 42 45 3.0 5.0 0.00 0.35 0.33 50 998.8
20260502160416 42 45 5.0 7.0 0.00 0.35 0.33 50 998.8
20260502151919 42 68 7.0 9.0 0.00 0.37 0.33 50 998.5
20260502151418 42 45 4.0 7.0 0.00 0.37 0.33 50 998.6
20260502150920 42 45 5.0 8.0 0.00 0.38 0.33 51 998.5
20260502150418 42 23 5.0 8.0 0.00 0.38 0.33 51 998.4
20260502130421 42 45 9.0 15.0 0.00 0.42 0.33 50 997.8
20260502123418 41 23 11.0 14.0 0.00 0.44 0.33 49 998.0
20260502122938 41 23 9.0 12.0 0.00 0.44 0.33 49 998.0
20260502122419 41 45 8.0 12.0 0.00 0.44 0.33 49 998.0
20260502121918 42 23 9.0 13.0 0.00 0.44 0.33 49 998.0
20260502121418 42 23 10.0 12.0 0.00 0.44 0.33 49 997.9
20260502120919 41 23 10.0 12.0 0.00 0.44 0.33 49 997.9
20260502120418 42 45 8.0 12.0 0.00 0.44 0.33 49 997.8
20260502115919 41 23 7.0 12.0 0.00 0.44 0.33 50 997.8
20260502115419 41 45 8.0 11.0 0.00 0.44 0.33 50 997.7
20260502114938 41 23 10.0 13.0 0.00 0.44 0.33 50 997.7
20260502114418 41 23 10.0 14.0 0.00 0.44 0.33 50 997.6
20260502113919 41 45 8.0 12.0 0.00 0.45 0.33 50 997.6
20260502113418 41 23 10.0 14.0 0.00 0.45 0.33 50 997.6
20260502112918 41 23 10.0 14.0 0.00 0.45 0.33 50 997.6
20260502112418 41 23 6.0 10.0 0.00 0.46 0.33 49 997.6
20260502111938 41 45 12.0 15.0 0.00 0.47 0.33 48 997.4
20260502111418 41 45 9.0 12.0 0.00 0.48 0.33 48 997.5
20260502110918 41 23 10.0 13.0 0.00 0.49 0.33 48 997.4
20260502110418 41 23 10.0 15.0 0.00 0.49 0.33 49 997.3
20260502105918 41 23 9.0 13.0 0.00 0.49 0.33 48 997.3
20260502105418 41 23 10.0 15.0 0.00 0.49 0.33 48 997.3
20260502104918 41 23 9.0 12.0 0.00 0.49 0.33 48 997.3
20260502104418 41 23 9.0 12.0 0.00 0.50 0.33 48 997.2
20260502103918 41 23 11.0 14.0 0.00 0.50 0.33 48 997.2
20260502103417 41 23 12.0 17.0 0.00 0.51 0.33 49 997.0
20260502102918 41 23 11.0 14.0 0.00 0.52 0.33 48 997.0
20260502102438 41 23 11.0 15.0 0.01 0.52 0.33 49 996.9
20260502101918 41 23 11.0 15.0 0.01 0.53 0.33 49 997.0
20260502101459 41 45 10.0 14.0 0.01 0.53 0.33 49 997.0
20260502100958 40 45 11.0 16.0 0.03 0.53 0.33 49 996.8
20260502100439 40 45 6.0 10.0 0.04 0.54 0.33 50 996.9
20260502091418 38 23 8.0 11.0 0.20 0.60 0.32 53 996.8
20260502090937 38 0 10.0 14.0 0.19 0.59 0.30 53 997.0
20260502090418 38 338 9.0 11.0 0.19 0.58 0.29 53 996.9
20260502071419 42 225 6.0 7.0 0.00 0.38 0.00 52 996.1
20260502070920 42 225 7.0 10.0 0.00 0.38 0.00 52 996.0
20260502070438 43 203 2.0 4.0 0.00 0.38 0.00 52 995.9
20260502065917 43 203 1.0 2.0 0.00 0.38 0.00 52 996.0
20260502065419 43 180 5.0 9.0 0.00 0.38 0.00 51 996.1
20260502064919 44 113 5.0 8.0 0.00 0.38 0.00 51 996.1
20260502064418 44 113 6.0 8.0 0.00 0.38 0.00 52 996.1
20260502063917 44 113 8.0 10.0 0.00 0.38 0.00 51 996.2
20260502063418 44 90 10.0 11.0 0.00 0.38 0.00 51 996.2
20260502062917 44 90 11.0 13.0 0.00 0.38 0.00 51 996.2
20260502062418 44 68 8.0 13.0 0.00 0.38 0.00 50 996.2
20260502061918 44 68 6.0 8.0 0.00 0.38 0.00 50 996.4
20260502061417 44 90 8.0 9.0 0.00 0.38 0.00 50 996.4
20260502060917 44 68 6.0 9.0 0.00 0.38 0.00 49 996.5
20260502060418 44 68 9.0 11.0 0.00 0.38 0.00 50 996.5
20260502055917 44 68 9.0 12.0 0.00 0.38 0.00 49 996.6
20260502055418 44 68 8.0 13.0 0.00 0.38 0.00 49 996.6
20260502054917 44 68 8.0 10.0 0.00 0.38 0.00 49 996.6
20260502054417 44 68 8.0 11.0 0.00 0.38 0.00 49 996.7
20260502053917 44 90 9.0 11.0 0.00 0.38 0.00 49 996.7
20260502053417 44 68 9.0 13.0 0.00 0.38 0.00 48 996.5
20260502052918 44 68 11.0 13.0 0.00 0.38 0.00 48 996.5
20260502052420 44 68 10.0 13.0 0.00 0.38 0.00 48 996.5
20260502051918 44 68 11.0 14.0 0.00 0.38 0.00 48 996.5
20260502051418 44 68 12.0 15.0 0.00 0.38 0.00 48 996.7
20260502050918 44 68 12.0 14.0 0.00 0.38 0.00 48 996.8
20260502050417 43 68 12.0 15.0 0.00 0.38 0.00 48 996.7
20260502045958 43 68 13.0 16.0 0.00 0.38 0.00 49 996.7
20260502045418 43 68 14.0 17.0 0.00 0.38 0.00 49 996.5
20260502044917 43 68 14.0 17.0 0.00 0.38 0.00 49 996.7
20260502044418 43 45 15.0 17.0 0.00 0.38 0.00 49 996.8
20260502043918 43 45 15.0 17.0 0.00 0.38 0.00 49 996.8
20260502043438 43 45 14.0 17.0 0.00 0.38 0.00 49 996.9
20260502042917 43 45 13.0 17.0 0.00 0.38 0.00 49 996.9
20260502042418 43 45 12.0 15.0 0.00 0.38 0.00 50 997.0
20260502041938 43 45 9.0 13.0 0.00 0.38 0.00 50 997.1
20260502041417 43 45 16.0 19.0 0.00 0.38 0.00 50 996.9
20260502040917 43 45 12.0 14.0 0.00 0.38 0.00 51 996.9
20260502040417 43 45 14.0 20.0 0.00 0.38 0.00 50 996.9
20260502035918 43 45 12.0 16.0 0.00 0.38 0.38 51 996.9
20260502035438 43 45 13.0 20.0 0.00 0.38 0.38 51 996.8
20260502034917 44 23 14.0 15.0 0.00 0.38 0.38 51 996.8
20260502034438 44 23 16.0 19.0 0.00 0.38 0.38 51 996.7
20260502033917 44 23 16.0 20.0 0.00 0.38 0.38 51 996.6
20260502033417 45 23 15.0 20.0 0.00 0.38 0.38 52 996.6
20260502032917 43 0 10.0 16.0 0.00 0.38 0.38 53 996.7
20260502032418 43 0.0 0.0 0.00 0.38 0.38 52 996.6
20260502031937 43 0.0 0.0 0.00 0.38 0.38 52 996.5
20260502031439 43 315 1.0 2.0 0.00 0.38 0.38 52 996.5
20260502030938 43 0.0 0.0 0.00 0.38 0.38 52 996.5
20260502030421 43 0.0 0.0 0.01 0.38 0.38 52 996.5
20260502025917 43 0.0 1.0 0.01 0.38 0.38 52 996.5
20260502025420 43 0.0 1.0 0.01 0.38 0.38 52 996.3
20260502024919 43 315 2.0 3.0 0.01 0.38 0.38 51 996.4
20260502024417 43 0.0 1.0 0.01 0.38 0.38 52 996.4
20260502023921 43 315 1.0 3.0 0.01 0.38 0.38 52 996.5
20260502023418 44 315 2.0 3.0 0.01 0.38 0.38 52 996.5
20260502022920 44 315 2.0 4.0 0.01 0.38 0.38 52 996.5
20260502022418 44 315 3.0 4.0 0.01 0.38 0.38 51 996.5
20260502021920 44 315 2.0 2.0 0.01 0.38 0.38 51 996.5
20260502021420 44 338 2.0 3.0 0.01 0.38 0.38 51 996.6
20260502020919 44 338 1.0 2.0 0.01 0.38 0.38 51 996.6
20260502020438 44 338 1.0 2.0 0.00 0.37 0.37 51 996.5
20260502015917 44 338 3.0 4.0 0.00 0.37 0.37 51 996.5
20260502015440 44 338 2.0 5.0 0.00 0.37 0.37 52 996.5
20260502014920 44 0 7.0 10.0 0.00 0.37 0.37 52 996.4
20260502014501 44 338 6.0 9.0 0.00 0.37 0.37 52 996.3
20260502013919 45 0 10.0 13.0 0.00 0.37 0.37 52 996.3
20260502013419 45 0 14.0 16.0 0.00 0.37 0.37 52 996.0
20260502012920 45 0 16.0 19.0 0.00 0.37 0.37 53 996.1
20260502012419 45 0 15.0 18.0 0.00 0.37 0.37 53 996.1
20260502011920 46 0 15.0 18.0 0.00 0.37 0.37 54 996.0
20260502011417 46 0 13.0 16.0 0.00 0.37 0.37 56 996.0
20260502010940 46 248 7.0 8.0 0.00 0.37 0.37 54 995.9
20260502010419 46 248 4.0 5.0 0.00 0.37 0.37 54 995.7
20260502005920 46 225 4.0 6.0 0.00 0.37 0.37 54 995.7
20260502005417 46 225 5.0 8.0 0.00 0.37 0.37 54 995.6
20260502004919 46 225 7.0 9.0 0.00 0.37 0.37 53 995.6
20260502004420 46 248 5.0 7.0 0.00 0.37 0.37 53 995.5
20260502003940 46 225 6.0 7.0 0.00 0.37 0.37 52 995.5
20260502003417 46 248 5.0 7.0 0.00 0.37 0.37 52 995.5
20260502002917 47 248 6.0 7.0 0.00 0.37 0.37 52 995.5
20260502002417 47 248 6.0 8.0 0.00 0.37 0.37 52 995.4
20260502001919 47 225 5.0 6.0 0.00 0.37 0.37 51 995.3
20260502001419 47 225 4.0 5.0 0.00 0.37 0.37 50 995.2
20260502000937 47 225 4.0 5.0 0.00 0.37 0.37 50 995.2
20260502000419 47 225 5.0 6.0 0.00 0.37 0.37 50 995.2
20260501235919 47 270 3.0 4.0 0.00 0.37 0.37 49 995.1
20260501235418 47 270 2.0 3.0 0.00 0.37 0.37 49 995.0
20260501234919 47 270 4.0 4.0 0.00 0.37 0.37 49 995.0
20260501234438 47 270 3.0 4.0 0.00 0.37 0.37 49 995.0
20260501233917 47 270 2.0 4.0 0.00 0.37 0.37 49 995.1
20260501233438 47 270 3.0 4.0 0.00 0.37 0.37 50 995.0
20260501232937 47 293 3.0 4.0 0.00 0.37 0.37 49 995.0
20260501232417 47 293 1.0 2.0 0.00 0.37 0.37 48 995.0
20260501231917 47 270 2.0 3.0 0.00 0.37 0.37 48 995.0
20260501231417 47 270 4.0 6.0 0.00 0.37 0.37 49 995.0
20260501230937 47 248 2.0 3.0 0.00 0.37 0.37 49 995.0
20260501230417 47 248 3.0 3.0 0.00 0.37 0.37 48 995.0
20260501225937 47 0.0 1.0 0.00 0.37 0.37 48 995.0
20260501225437 47 90 1.0 2.0 0.00 0.37 0.37 48 995.1
20260501224918 47 90 1.0 3.0 0.00 0.37 0.37 49 995.0
20260501224437 46 0.0 0.0 0.00 0.37 0.37 48 995.1
20260501223917 46 0.0 1.0 0.00 0.37 0.37 49 995.1
20260501223417 46 90 1.0 1.0 0.00 0.37 0.37 48 995.1
20260501222917 47 0.0 0.0 0.00 0.37 0.37 48 995.1
20260501222417 47 0.0 1.0 0.00 0.37 0.37 49 995.1
20260501221918 47 90 1.0 2.0 0.00 0.37 0.37 48 995.1
20260501221418 47 68 2.0 3.0 0.00 0.37 0.37 48 995.1
20260501220917 47 68 1.0 2.0 0.00 0.37 0.37 48 995.0
20260501220417 46 68 1.0 1.0 0.00 0.37 0.37 48 995.0
20260501215959 46 68 1.0 2.0 0.00 0.37 0.37 48 995.1
20260501215417 46 68 2.0 3.0 0.00 0.37 0.37 49 995.0
20260501214917 46 68 2.0 3.0 0.00 0.37 0.37 48 995.0
20260501214419 46 90 2.0 2.0 0.00 0.37 0.37 49 995.0
20260501213919 46 23 3.0 3.0 0.00 0.37 0.37 49 995.0
20260501213416 46 23 2.0 3.0 0.00 0.37 0.37 48 995.0
20260501212916 46 23 2.0 2.0 0.00 0.37 0.37 48 994.9
20260501212416 46 23 1.0 1.0 0.00 0.37 0.37 48 994.9
20260501211919 46 0.0 1.0 0.00 0.37 0.37 48 994.9
20260501211421 46 23 2.0 3.0 0.00 0.37 0.37 47 995.0
20260501210917 46 23 2.0 3.0 0.00 0.37 0.37 48 994.8
20260501210419 46 23 1.0 2.0 0.00 0.37 0.37 47 994.8
20260501205919 46 23 1.0 2.0 0.00 0.37 0.37 48 994.8
20260501205417 46 23 2.0 3.0 0.00 0.37 0.37 48 994.8
20260501204919 46 23 3.0 5.0 0.00 0.37 0.37 48 994.6
20260501204416 46 23 2.0 4.0 0.00 0.37 0.37 48 994.7
20260501203939 45 23 1.0 2.0 0.00 0.37 0.37 48 994.6
20260501203420 45 0.0 1.0 0.00 0.37 0.37 48 994.6